Location: *
(9.8561°S, 112.3023°E)
Time: 20:24:08
(UTC+00:00)

Daily predictions for brighter satellites

Satellite Brightness Start Highest point End
(mag) Time Altitude Azimuth Time Altitude Azimuth Time Altitude Azimuth
Cosmos 1953 4.3 12:05:06 10° SW 12:08:22 27° W 12:11:37 10° NNW
Cosmos 1455 3.5 12:06:50 10° SSW 12:10:09 37° W 12:13:27 10° NNW
Cosmos 2082 Rocket 2.3 12:11:16 10° N 12:15:55 58° NNE 12:15:55 58° NNE
Cosmos 2327 Rocket 4.3 12:20:19 10° N 12:26:22 88° NW 12:26:22 88° NW
ADEOS Rocket 4.0 12:22:22 10° S 12:28:26 44° WSW 12:33:57 10° NW
ARIANE 5 R/B 4.0 12:26:43 10° WNW 12:31:13 23° NNW 12:31:13 23° NNW
USA 229 DEB 4.4 12:32:13 10° SSW 12:35:35 35° SSW 12:35:35 35° SSW
USA 229 4.4 12:32:21 10° SSW 12:35:38 34° SSW 12:35:38 34° SSW
Centaur D AC-29 4.1 13:05:43 10° WNW 13:07:12 14° WNW 13:07:12 14° WNW
Milstar 3 Cent rocket 3.8 20:11:11 64° SW 20:11:25 64° SSW 20:19:25 10° SE
USA 238 DEB 3.9 20:23:15 84° SW 20:23:15 84° SW 20:31:06 10° SSE
USA 238 3.9 20:23:11 85° W 20:23:18 86° WSW 20:31:15 10° SSE
Delta 198 4.3 20:34:30 84° NNE 20:34:30 84° NNE 20:41:02 10° ENE
ARIANE 5 R/B 4.3 20:32:22 37° NNW 20:34:56 48° NNE 21:38:29 10° E
Ariane H10+ 4.2 20:39:12 16° NNE 20:39:12 16° NNE 20:40:02 10° NE
Cosmos 1943 3.6 20:42:05 49° N 20:42:05 49° N 20:46:13 10° N
H-2A R/B 3.2 20:37:40 10° N 20:40:24 32° N 20:40:24 32° N
USA 267 3.2 20:39:44 10° SE 20:46:19 84° NE 20:50:00 29° NNW
OAO 1 Rocket 4.3 20:48:14 80° SSE 20:48:14 80° SSE 20:53:18 10° SE
Centaur AC-64 3.9 20:59:31 25° NNW 21:00:41 28° N 21:03:06 10° ENE
Cosmos 1603 3.5 20:59:40 38° SSW 21:01:52 78° WNW 21:07:26 10° N
FengYun 1-2 T 4.3 21:02:39 10° NNE 21:08:08 78° ESE 21:13:38 10° S
Fermi 3.5 21:09:45 75° NW 21:09:52 76° NNW 21:13:49 10° ENE
Cosmos 1553 Rocket 3.9 21:07:09 10° NNW 21:13:09 61° W 21:19:11 10° S
Cosmos 2278 Rocket 2.1 21:09:06 10° NNW 21:14:45 88° WSW 21:20:25 10° SSE
ISS -2.0 21:17:47 21° NNW 21:17:47 21° NNW 21:19:19 10° N
Cosmos 2228 Rocket 3.7 21:16:32 10° S 21:21:01 60° E 21:25:24 10° NNE
Cosmos 2084 Rocket 3.4 21:25:57 33° WNW 21:27:20 48° WSW 21:31:20 10° S
SL-14 R/B 4.4 21:24:31 10° SSE 21:28:15 44° E 21:31:59 10° NNE
Cosmos 614 Rocket 3.8 21:25:11 10° SSW 21:30:12 69° WNW 21:35:12 10° N
ARIANE 5 R/B 2.7 21:27:02 10° N 21:31:59 47° WNW 21:36:56 10° SSW
Hubble Space Telescope 2.2 21:31:35 20° SSW 21:32:08 20° SSW 21:35:10 10° SSE
ARGOS 3.2 21:27:02 10° N 21:32:14 55° WNW 21:37:30 10° SSW
Cosmos 1420 Rocket 4.1 21:28:53 10° N 21:34:09 81° ENE 21:39:29 10° SSE
Nadezhda 2 Rocket 4.4 21:30:24 10° S 21:36:38 83° W 21:42:44 10° N
Cosmos 2056 Rocket 3.9 21:32:15 10° N 21:37:37 72° ENE 21:42:59 10° SSE
In-Cosmos 22 4.4 21:34:10 10° SSW 21:39:05 40° W 21:44:02 10° NNW
Cosmos 1633 Rocket 4.0 21:36:08 10° NW 21:39:45 26° W 21:43:25 10° SSW
USA 306 3.5 21:38:51 25° W 21:39:55 30° WNW 21:43:19 10° N
OAO 2 Rocket 3.2 21:37:49 19° SW 21:41:19 86° NW 21:46:19 10° NE
Spot 4 Rocket 4.4 21:38:16 10° NNE 21:43:21 68° ESE 21:48:28 10° S
SWIFT 4.0 21:47:06 13° WNW 21:49:20 20° NNW 21:52:19 10° NNE
Okean 3 4.1 21:45:40 10° S 21:49:50 59° E 21:53:59 10° NNE
Cosmos 1624 Rocket 3.9 21:44:47 10° NNW 21:49:57 84° WSW 21:55:09 10° S
CZ-2D R/B 4.1 21:51:41 10° NNW 21:55:33 36° W 21:59:33 10° SSW
Cosmos 1470 2.7 21:53:10 10° N 21:56:56 84° E 22:00:43 10° S
Cosmos 1269 Rocket 4.0 21:54:26 10° SSW 21:59:42 67° WNW 22:04:56 10° N
Delta 168 2.8 21:57:15 14° W 21:59:52 48° SSW 22:03:42 10° SE
Lacrosse 5 rocket 2.1 21:55:38 10° SSW 21:59:56 57° ESE 22:04:09 10° NE
Meteor 1-21 4.2 21:54:27 10° S 22:00:11 73° W 22:05:47 10° N
SeaSat 1 2.5 21:57:04 10° NNE 22:01:57 83° ESE 22:06:53 10° SSW
PSLV R/B 3.4 21:58:18 10° N 22:02:23 74° WNW 22:06:31 10° SSW
Cosmos 220 Rocket 3.9 21:59:46 10° SSW 22:03:52 58° WNW 22:07:59 10° N
Cosmos 1461 2.7 22:05:53 10° NNW 22:09:40 64° WSW 22:13:36 10° SSE
ARIANE 5 R/B 4.0 21:49:56 10° W 22:10:46 48° NNW 22:14:38 10° ENE
H-2A R/B 2.2 22:10:51 10° SW 22:12:55 26° SSE 22:14:34 10° E
SMAP 3.5 22:10:18 10° NNE 22:14:54 69° ESE 22:19:33 10° S
ARIANE 5 R/B 4.3 22:09:33 10° WNW 22:16:03 19° NNW 22:19:22 10° NNE
Cosmos 1943 Rocket 2.6 22:10:57 10° NW 22:16:10 39° WSW 22:21:25 10° S
ARIANE 5 DEB (SYLDA) 4.4 22:16:15 10° W 22:31:24 50° NNW 22:35:35 10° ENE
